Content
SEND FEEDBACK

Daily
Averages
Monthly
Summary
Slovenia

LJUBLJANA, SLOVENIA


Home > Europe > Slovenia
Elevation: 1187 feet     Latitude: 46 13N     Longitude: 14 29E

WEATHER
 
SELECT A DAY
Number of Records: 264,843;   Date Range: 3/24/97 - 10/19/14
 
SHARE

PRINT THIS DATA

[ ← Previous Day ]
WEATHER ALMANAC - FEBRUARY 13, 2013
[ Next Day → ]
[ °C ]   °F
Weather ElementAverageHighLow
Temperature27.2 °F33.8 °F (1:30 pm)19.4 °F (12:30 am)
Dewpoint25.8 °F32 °F (1:30 pm)17.6 °F (1:00 am)
Humidity94.8 %100 % (12:30 am)93 % (1:00 am)
Barometer29.91 in30.01 in (9:00 pm)29.80 in (12:30 am)
Wind Speed1.7 mph5.8 mph (12:30 am)
Weather ElementAverage
Visibility1.7 mi
Wind DirectionE (95.1 °)

Weather ElementTotal
Precipitation---
Heating Degree Days38.4 (Base 65)
Averaged from 47 records on February 13, 2013
WEATHER CONDITIONS BREAKOUT
WIND DIRECTION BREAKOUT
WEATHER BY HOUR - FEBRUARY 13, 2013
[ °C ]   °F
Local TimeTemperatureDewpointHumidityBarometerVisibilityWind DirectionWind SpeedGust SpeedPrecipitationEventsConditions
12:30 AM19.4 °F19.4 °F100 %29.80 in2.2 miWest (280°)5.8 mphMostly Cloudy
1:00 AM19.4 °F17.6 °F93 %29.83 in2.2 miWNW (300°)3.5 mphMostly Cloudy
1:30 AM19.4 °F17.6 °F93 %29.83 in2.2 miVariable3.5 mphMostly Cloudy
2:00 AM19.4 °F17.6 °F93 %29.83 in2.2 miVariable1.2 mphMostly Cloudy
2:30 AM19.4 °F17.6 °F93 %29.83 in2.2 miVariable1.2 mphMostly Cloudy
3:00 AM19.4 °F17.6 °F93 %29.83 in2.2 miCalmMostly Cloudy
3:30 AM19.4 °F17.6 °F93 %29.83 in2.2 miVariable1.2 mphMostly Cloudy
4:00 AM21.2 °F19.4 °F93 %29.83 in3.1 miWNW (300°)3.5 mphMostly Cloudy
4:30 AM21.2 °F19.4 °F93 %29.83 in3.1 miVariable3.5 mphMostly Cloudy
5:00 AM19.4 °F17.6 °F93 %29.83 in3.1 miWNW (290°)5.8 mphMostly Cloudy
5:30 AM21.2 °F21.2 °F100 %29.83 in3.1 miWNW (290°)4.6 mphMostly Cloudy
6:00 AM23.0 °F21.2 °F93 %29.86 in3.1 miCalmMostly Cloudy
6:30 AM23.0 °F21.2 °F93 %29.86 in3.1 miCalmMostly Cloudy
7:00 AM23.0 °F21.2 °F93 %29.86 in3.1 miCalmMostly Cloudy
7:30 AM23.0 °F21.2 °F93 %29.89 in2.5 miCalmSnowLight Snow
8:00 AM24.8 °F23.0 °F93 %29.89 in1.9 miWest (270°)2.3 mphSnowLight Snow
8:30 AM24.8 °F24.8 °F100 %29.89 in1.9 miCalmSnowLight Snow
9:00 AM26.6 °F24.8 °F93 %29.89 in1.9 miWest (280°)3.5 mphSnowLight Snow
9:30 AM26.6 °F24.8 °F93 %29.89 in1.9 miESE (120°)1.2 mphSnowLight Snow
10:00 AM28.4 °F26.6 °F93 %29.92 in1.2 miCalmSnowLight Snow
10:30 AM28.4 °F26.6 °F93 %29.92 in1.2 miWNW (300°)1.2 mphSnowLight Snow
11:00 AM28.4 °F28.4 °F100 %29.92 in0.7 miWest (270°)3.5 mphSnowSnow
11:30 AM30.2 °F28.4 °F93 %29.92 in0.7 miWest (270°)2.3 mphSnowLight Snow
12:00 PM30.2 °F28.4 °F93 %29.92 in0.9 miWNW (290°)1.2 mphSnowSnow
12:30 PM32.0 °F30.2 °F93 %29.92 in0.7 miCalmSnowLight Snow
1:00 PM32.0 °F30.2 °F93 %29.92 in0.7 miCalmSnowLight Snow
1:30 PM33.8 °F32.0 °F93 %29.92 in0.7 miCalmSnowLight Snow
2:00 PM32.0 °F30.2 °F93 %29.92 in0.9 miVariable1.2 mphSnowLight Snow
2:30 PM32.0 °F30.2 °F93 %29.92 in0.6 miENE (70°)2.3 mphSnowSnow
3:00 PM32.0 °F30.2 °F93 %29.92 in0.6 miVariable1.2 mphSnowSnow
3:30 PM32.0 °F30.2 °F93 %29.92 in0.6 miEast (80°)2.3 mphSnowLight Snow
4:00 PM32.0 °F30.2 °F93 %29.92 in0.6 miCalmSnowLight Snow
4:30 PM32.0 °F30.2 °F93 %29.92 in1.2 miSouth (190°)2.3 mphSnowLight Snow
5:00 PM32.0 °F30.2 °F93 %29.95 in2.2 miSSE (150°)3.5 mphSnowLight Snow
5:30 PM32.0 °F30.2 °F93 %29.95 in1.9 miVariable2.3 mphSnowLight Snow
6:00 PM32.0 °F30.2 °F93 %29.95 in2.2 miVariable1.2 mphSnowLight Snow
6:30 PM30.2 °F30.2 °F100 %29.98 in1.9 miENE (70°)3.5 mphSnowLight Snow
7:00 PM30.2 °F30.2 °F100 %29.98 in1.6 miENE (70°)2.3 mphSnowLight Snow
7:30 PM30.2 °F30.2 °F100 %29.98 in1.2 miVariable1.2 mphOvercast
8:00 PM30.2 °F30.2 °F100 %29.98 in1.2 miCalmOvercast
8:30 PM30.2 °F30.2 °F100 %29.98 in0.4 miESE (120°)2.3 mphFogLight Freezing Fog
9:00 PM30.2 °F30.2 °F100 %30.01 in0.9 miCalmOvercast
9:30 PM30.2 °F28.4 °F93 %30.01 in0.9 miVariable1.2 mphOvercast
10:00 PM30.2 °F30.2 °F100 %30.01 in0.9 miCalmOvercast
10:30 PM30.2 °F30.2 °F100 %30.01 in0.9 miNNW (340°)1.2 mphOvercast
11:00 PM30.2 °F28.4 °F93 %30.01 in1.9 miCalmOvercast
11:30 PM30.2 °F28.4 °F93 %30.01 in1.9 miESE (120°)2.3 mphOvercast
Hourly data recorded from LJLJ, located miles away from Ljubljana, Slovenia







STORIES FROM OUR PARTNERS